Weather in Borisovka

Russia / Chelyabinsk Oblast     54°16′07″N   60°40′16″E
temp.,
°C
wind,
m/s
gust,
m/s
humid.,
%
clouds,
%
prec.,
mm/h
press.,
hPa
HPBL,
m
14 april, wed
wed1423:00+8s36834 0.0 103883
02:00+6ssw37905 0.0 1036128
05:00+5sw36927 0.0 1036104
08:00+7sw368466 0.0 1035166
11:00+12sw34525 0.0 1034386
14:00+16sw33395 0.0 1032693
17:00+16sw343424 0.0 1031705
20:00+12sw335322 0.0 102918
15 april, thu
thu1523:00+9sw33655 0.0 103034
02:00+7sw35725 0.0 102961
05:00+6sw47745 0.0 102993
08:00+7wsw38655 0.0 1028178
11:00+14wsw34395 0.0 1026353
14:00+18wsw44295 0.0 1024743
17:00+18wsw453096 0.0 1023839
20:00+13sw334859 0.0 102229
16 april, fri
fri1623:00+10wsw355652 0.0 102151
02:00+8w33617 0.0 102136
05:00+8nw22680 0.0 102112
08:00+10n24685 0.0 1020107
11:00+14ne56525 0.0 1020724
14:00+16ne655611 0.0 10211337
17:00+12ne6770100 0.0 1022701
20:00+8ne588343 0.0 1023454
17 april, sat
sat1723:00+6ne478739 0.0 1024277
02:00+6ne2485100 0.0 1023181
05:00+6nne2287100 0.0 102367
08:00+6ne2387100 0.0 1023173
11:00+6ne3382100 0.0 1023462
14:00+6ne3482100 0.0 1024443
17:00+5ene118688 0.0 1023251
20:00+5wnw118999 0.0 102274
18 april, sun
sun1823:00+5w249087 0.0 1021121
02:00+5wnw369079 0.0 1020166
05:00+2nnw497410 0.0 1020199
08:00+4nw510634 0.0 1019510
11:00+8nnw795020 0.0 10181387
14:00+2ne8991100 0.3 1020657
17:00+5nne8938100 0.9 10221935
20:00+1ne7104379 0.0 10251085